Zurück zum Katalog

TSX-5

AktivMilitärLEO
NORAD 26374·PAYLOAD·🇺🇸 United States

Gestartet Jun 7, 2000 von Vandenberg Space Force Base

Loading…

Nächste Überflüge (nächste 24 Stunden)

TLE

AktuellSource: Space-Track

Epoche: Sep 14, 2026, 08:29 UTC

1 26374U 00030A   26257.35407484  .00006300  00000-0  31599-3 0  9991
2 26374  68.9110 115.4104 0425750 307.1449  49.1493 14.63485457335598

Verfolge TSX-5 in Echtzeit mit AllMySat

Download on the App Store